Regional Weather Roundup
Issued by NWS

Home | Current Version | Previous Version | Text Only | Print | Product List | Glossary On
Versions: 1 2 3 4 5 6 7 8 9 10 11 12 13 14 15 16 17 18 19 20 21 22 23 24 25 26 27 28 29 30 31 32 33 34 35 36 37 38 39 40 41 42 43 44 45 46 47 48 49 50
000
ASUS43 KMPX 191410
RWRMN
WEATHER ROUNDUP FOR MINNESOTA
NATIONAL WEATHER SERVICE TWIN CITIES/CHANHASSEN MN
900 AM CDT SUN APR 19 2015


NOTE: "FAIR" INDICATES FEW OR NO CLOUDS BELOW 12,000 FEET WITH NO
SIGNIFICANT WEATHER AND/OR OBSTRUCTIONS TO VISIBILITY. N/A MEANS
CURRENT SKY AND/OR WEATHER CONDITIONS ARE NOT AVAILABLE.

MNZ060>063-068>070-191500-
   Twin Cities Metro

CITY           SKY/WX    TMP DP  RH WIND       PRES   REMARKS
TWIN CITIES    CLOUDY    49  47  93 SE9       29.71F
ST PAUL        CLOUDY    49  43  80 SE9       29.72F
CRYSTAL        CLOUDY    51  46  83 SE10      29.69F
BLAINE         CLOUDY    50  48  93 SE10      29.70F
LAKEVILLE      CLOUDY    52  48  87 SE6       29.70F
EDEN PRAIRIE   CLOUDY    52  48  86 SE8       29.69F
SOUTH ST PAUL  CLOUDY    49  44  80 SE5       29.71F
LAKE ELMO      CLOUDY    46  43  87 SE5       29.72F
$$
MNZ001>005-007-008-013>017-022>024-027-028-191500-
   Northwest Minnesota

CITY           SKY/WX    TMP DP  RH WIND       PRES   REMARKS
BEMIDJI        CLOUDY    39  38  97 CALM      29.68S
HALLOCK        LGT RAIN  45  43  93 NW15      29.69F
ROSEAU         LGT RAIN  43  37  81 SE5       29.68F
WARROAD        DRIZZLE   39  36  87 E7        29.70F
THIEF RVR FALL CLOUDY    45  45 100 E6        29.68F
CROOKSTON      RAIN      46  45  93 NW13      29.69F
FOSSTON        DRIZZLE   43  41  93 E5        29.68F
DETROIT LAKES  CLOUDY    45  43  93 NE5       29.68F
MOORHEAD       CLOUDY    46  46 100 NW15      29.69F
PARK RAPIDS    CLOUDY    42  39  89 NE6       29.66F FOG
MAHNOMEN       CLOUDY    44  43  96 SE3       29.67F FOG
$$
MNZ006-009>011-018-025>026-191500-
   North Central Minnesota

CITY           SKY/WX    TMP DP  RH WIND       PRES   REMARKS
BAUDETTE       LGT RAIN  41  39  93 E9        29.71F
FLAG ISLAND    LGT RAIN  37  36  93 E7        29.70F
INTL FALLS     LGT RAIN  41  39  93 E5        29.71F
WASKISH        DRIZZLE   41  39  93 CALM      29.70F
BIG FORK       RAIN      39  37  93 SE9       29.69F
LONGVILLE      DRIZZLE   39  37  93 CALM      29.66F
GRAND RAPIDS   CLOUDY    37  34  87 SE5       29.68F
ORR            RAIN      39  36  87 SE8       29.69F
COOK           LGT RAIN  37  37 100 CALM      29.71F
WALKER         DRIZZLE   38  38  97 E3        29.67F
$$
MNZ012-019>021-037-191500-
   Northeast Minnesota

CITY           SKY/WX    TMP DP  RH WIND       PRES   REMARKS
DULUTH         LGT RAIN  39  37  92 E13       29.72F FOG
ELY            LGT RAIN  37  36  93 E5        29.74F
HIBBING        LGT RAIN  39  36  89 SE9       29.69F
EVELETH        LGT RAIN  39  37  93 SE10      29.71F
DULUTH HARBOR  LGT RAIN  37  36  93 NE20      29.77F
TWO HARBORS    RAIN      41  36  81 E13       29.74F
SILVER BAY     RAIN      37  36  93 NE10G17   29.78F
GRAND MARAIS     N/A     38  35  89 NE13      29.88F
G MARAIS ARPRT RAIN      34  28  80 SE10G20   29.84S WCI  26
$$
MNZ029>031-032-039>041-046>048-054>057-064-191500-
   West Central Minnesota

CITY           SKY/WX    TMP DP  RH WIND       PRES   REMARKS
FERGUS FALLS   CLOUDY    46  46 100 N8        29.69F
WHEATON        CLOUDY    46  45  93 NW18G24   29.72S
MORRIS         CLOUDY    48  46  93 NW17      29.68S FOG
ALEXANDRIA     CLOUDY    48  45  89 W16       29.65F
ELBOW LAKE     CLOUDY    46  45  97 NW10      29.68F
WADENA         CLOUDY    43  43 100 N8        29.64S
GLENWOOD       CLOUDY    46  46 100 W13       29.66F
APPLETON       CLOUDY    52  48  87 NW16G22   29.69F
BENSON         CLOUDY    50  46  87 N17       29.68F
ORTONVILLE     CLOUDY    48  46  93 NW16      29.70S
MADISON        CLOUDY    50  48  93 NW14      29.70F
WILLMAR        PTSUNNY   50  50 100 NW16      29.69S
$$
MNZ033>034-036-042>043-049>051-058-059-191500-
   Central Minnesota

CITY           SKY/WX    TMP DP  RH WIND       PRES   REMARKS
ST CLOUD       LGT RAIN  49  47  93 SE10      29.66F FOG
SAUK CENTRE    CLOUDY    49  47  95 W14       29.66R
PAYNESVILLE    DRIZZLE   49  49 100 SW10      29.66S
AITKIN         CLOUDY    45  39  81 SE8       29.65F
PINE RIVER     DRIZZLE   39  39 100 E3        29.69F
BRAINERD       CLOUDY    44  43  96 SE6       29.65F FOG
STAPLES        CLOUDY    45  45 100 S3        29.64F FOG
LONG PRAIRIE   CLOUDY    48  48 100 S6        29.64F FOG
LITTLE FALLS   CLOUDY    45  45 100 SE8       29.64F FOG
LITCHFIELD     LGT RAIN  55  55 100 CALM      29.66F
BUFFALO        CLOUDY    50  46  87 SE7       29.68F
MAPLE LAKE     CLOUDY    51  49  94 SE7       29.68F
$$
MNZ037-044-045-052-053-191500-
   East Central Minnesota

CITY           SKY/WX    TMP DP  RH WIND       PRES   REMARKS
PRINCETON      CLOUDY    48  45  87 SE9       29.68F
MORA           CLOUDY    43  39  87 SE7       29.71F
CAMBRIDGE      CLOUDY    46  39  76 SE7       29.68F
RUSH CITY      CLOUDY    44  42  92 SE10G17   29.71F
MOOSE LAKE     CLOUDY    39  37  93 CALM      29.69F
HINCKLEY       CLOUDY    43  43 100 SE3       29.71F
CLOQUET        RAIN      37  37 100 E9        29.72F
MCGREGOR       CLOUDY    41  39  93 SE9       29.68F
$$
MNZ071>073-080-081-089-090-097-098-191500-
   Southwest Minnesota

CITY           SKY/WX    TMP DP  RH WIND       PRES   REMARKS
MONTEVIDEO     CLOUDY    52  52 100 N13       29.70S
GRANITE FALLS  CLOUDY    51  48  90 NW17      29.71F
CANBY          CLOUDY    52  47  84 NW13G20   29.72F
MARSHALL       CLOUDY    52  45  76 NW17G25   29.71S
REDWOOD FALLS  CLOUDY    53  51  93 NW17      29.69R
OLIVIA         CLOUDY    50  46  87 NW12G18   29.68R
PIPESTONE      CLOUDY    50  46  87 N16G23    29.73S
WORTHINGTON    CLOUDY    54  48  82 NW14      29.72S
JACKSON        CLOUDY    55  54  94 W10       29.71F FOG
TRACY          CLOUDY    53  50  91 NW16G23   29.72R
SLAYTON        CLOUDY    51  50  97 NW20      29.73R FOG
$$
MNZ065>067-074>077-082>085-091>093-191500-
   South Central Minnesota

CITY           SKY/WX    TMP DP  RH WIND       PRES   REMARKS
MANKATO        CLOUDY    55  50  82 S10       29.70F
NEW ULM        PTSUNNY   55  55 100 SW9       29.68F FOG
ST JAMES       CLOUDY    57  55  94 SW9       29.70F
FAIRMONT       CLOUDY    55  46  71 S9        29.70F
GLENCOE        CLOUDY    54  54  97 S5        29.67F FOG
FARIBAULT      PTSUNNY   55  52  88 S8        29.71F
OWATONNA       PTSUNNY   55  52  88 S10       29.71F
ALBERT LEA     PTSUNNY   55  55 100 S8        29.71F FOG
$$
MNZ078>079-086>088-094>096-191500-
   Southeast Minnesota

CITY           SKY/WX    TMP DP  RH WIND       PRES   REMARKS
ROCHESTER      CLOUDY    50  42  74 S10       29.74F
RED WING       CLOUDY    52  39  62 SE9       29.72F
STANTON        CLOUDY    54  47  77 S8        29.70F
DODGE CENTER   CLOUDY    52  48  87 S13       29.72F
WINONA         CLOUDY    54  41  62 SE7       29.75F
AUSTIN         CLOUDY    52  46  82 S7        29.72F
PRESTON        CLOUDY    50  41  70 SE5       29.74F
$$
ABBREVIATIONS USED IN REMARKS
   TC - TEMPERATURES IN CELSIUS
  WCI - WIND CHILL INDEX
   HX - HEAT INDEX
  VSB - VISIBILITY
$$


USA.gov is the U.S. government's official web portal to all federal, state and local government web resources and services.